Weather observations for the past three days for
Birchwood, Birchwood Airport
Imperial (Metric)
Date Time (akdt) Wind (mph) Vis. (mi.) Weather Sky Cond. Temperature (ºF) Relative Humidity Wind Chill (°F) Heat Index (°F) Pressure Precipitation (in)
Air Dwpt 6 hour altimeter (in) sea level (mb) 1 hr 3 hr 6 hr
Max. Min.
20 17:56 S 3 10.00 Fair CLR 64 46 52% 29.95 1014.8
20 16:56 W 5 10.00 Fair CLR 63 46.9 56% 29.96 1015.2
20 15:56 W 7 10.00 Fair CLR 62.1 48 62.1 52 60% 29.98 1015.6
20 14:56 W 5 10.00 Fair CLR 60.1 46 60% 29.98 1015.9
20 13:56 W 5 10.00 Partly Cloudy SCT100 59 46 62% 30 1016.5
20 12:56 Calm 10.00 Mostly Cloudy BKN090 55.9 46 70% 30.01 1016.7
20 11:56 Vrbl 5 10.00 Fair CLR 55 46 72% 30 1016.6
20 10:56 W 5 10.00 Mostly Cloudy BKN023 53.1 46.9 80% 30.02 1017.0
20 09:56 W 5 10.00 Fair CLR 53.1 46.9 53.1 48.9 80% 30.03 1017.3
20 08:56 Vrbl 3 10.00 Partly Cloudy SCT026 52 46 80% 30.03 1017.6
20 07:56 W 3 10.00 A Few Clouds FEW100 52 46 80% 30.03 1017.5
20 06:56 Calm 10.00 Mostly Cloudy BKN100 51.1 46 83% 30.04 1017.7
20 05:56 Calm 10.00 Fair CLR 50 45 83% 30.04 1017.6
20 04:56 Calm 10.00 Partly Cloudy SCT090 50 46 86% 30.04 1017.6
20 03:56 Calm 10.00 Partly Cloudy SCT075 51.1 46 63 51.1 83% 30.04 1017.6
20 02:56 Calm 10.00 Fair CLR 52 46.9 83% 30.03 1017.3
20 01:56 SE 3 10.00 Fair CLR 53.1 46.9 80% 30.02 1017.1
20 00:56 Calm 10.00 Fair CLR 54 46.9 77% 30.02 1017.1
19 23:56 SW 5 10.00 Fair CLR 57 46 67% 30.01 1016.6
19 22:56 SW 5 10.00 Fair CLR 59 46 62% 29.99 1016.0
19 21:56 SW 6 10.00 Fair CLR 63 46.9 69.1 63 56% 29.98 1015.8
19 20:56 SW 8 10.00 Fair CLR 66.9 46.9 49% 29.98 1015.5
19 19:56 W 8 10.00 Fair CLR 66.9 50 55% 29.97 1015.3
19 18:56 W 8 10.00 Fair CLR 68 50 53% 29.97 1015.5
19 17:56 W 8 10.00 Fair CLR 68 48.9 51% 29.99 1016.0
19 16:56 W 7 10.00 Fair CLR 68 48 49% 30 1016.3
19 15:56 Vrbl 3 10.00 Fair CLR 66 44.1 66 51.1 45% 30.01 1016.9
19 14:56 Vrbl 5 10.00 Fair CLR 64.9 46.9 52% 30.03 1017.3
19 13:56 Vrbl 5 10.00 Fair CLR 62.1 46.9 58% 30.05 1018.1
19 12:56 NW 5 10.00 Fair CLR 59 46 62% 30.06 1018.4
19 11:56 Vrbl 3 10.00 Fair CLR 55.9 44.1 65% 30.06 1018.6
19 10:56 Calm 10.00 Fair CLR 54 44.1 69% 30.07 1019.0
19 09:56 Vrbl 3 10.00 Fair CLR 52 46 52 43 80% 30.09 1019.6
19 08:56 W 3 10.00 Fair CLR 51.1 46 83% 30.09 1019.7
19 07:56 SW 5 10.00 Partly Cloudy SCT013 51.1 44.1 77% 30.1 1019.8
19 06:56 Calm 10.00 A Few Clouds FEW013 48.9 43 80% 30.09 1019.7
19 05:56 SE 3 10.00 Fair CLR 46.9 42.1 83% 30.1 1019.8
19 04:56 SE 5 10.00 Fair CLR 45 41 86% 43 30.1 1019.8
19 03:56 SE 3 10.00 Fair CLR 46 42.1 55.9 46 86% 30.09 1019.5
19 02:56 S 5 10.00 Fair CLR 48 44.1 86% 47 30.09 1019.6
19 01:56 SE 3 10.00 Mostly Cloudy BKN060 50 45 83% 30.09 1019.6
19 00:56 Calm 10.00 Overcast OVC049 52 45 77% 30.1 1019.9
18 23:56 SW 3 10.00 Overcast OVC047 52 44.1 75% 30.09 1019.6
18 22:56 W 6 10.00 Overcast OVC049 54 44.1 69% 30.08 1019.2
18 21:56 SW 8 10.00 Overcast OVC043 55.9 44.1 64 55.9 65% 30.06 1018.7
18 20:56 SW 8 G 16 10.00 A Few Clouds FEW060 57 39.9 53% 30.05 0.0
18 19:56 SW 13 10.00 Fair CLR 57.9 37.9 48% 30.04 0.0
18 18:56 SW 14 G 21 10.00 Fair CLR 60.1 39.9 48% 30.02 0.0
18 17:56 W 12 10.00 Fair CLR 62.1 46.9 58% 30.02 0.0
18 16:56 W 10 10.00 Fair CLR 62.1 46.9 58% 30.03 0.0
18 15:56 W 10 10.00 Fair CLR 61 48 61 54 63% 30.03 0.0
18 14:56 W 10 10.00 Fair CLR 61 48.9 65% 30.04 0.0
18 13:56 W 8 10.00 Mostly Cloudy BKN041 60.1 48.9 67% 30.04 0.0
18 12:56 W 9 10.00 Fair CLR 57.9 48 70% 30.05 0.0
18 11:56 W 9 10.00 Fair CLR 57 46.9 69% 30.05 0.0
18 10:56 W 8 10.00 Fair CLR 57 46 67% 30.05 0.0
18 09:56 W 6 10.00 Fair CLR 54 46 75% 30.05 0.0
18 08:56 W 3 10.00 Mostly Cloudy FEW020 BKN034 54 45 72% 30.05 1018.2
18 07:56 NW 3 10.00 Mostly Cloudy BKN020 52 45 77% 30.05 1018.2
18 06:56 Calm 10.00 Partly Cloudy SCT032 52 45 77% 30.05 1018.0
18 05:56 Calm 10.00 Fair CLR 50 46.9 89% 30.05 1018.2
18 04:56 S 3 10.00 A Few Clouds FEW035 50 46.9 89% 30.05 1018.2
18 03:56 Calm 10.00 Partly Cloudy SCT070 51.1 48 62.1 51.1 89% 30.05 1018.1
18 02:56 Calm 10.00 Overcast OVC060 52 48.9 89% 30.04 1017.9
18 01:56 SW 5 10.00 Fair CLR 53.1 48.9 86% 30.04 1017.9
18 00:56 Calm 10.00 Fair CLR 54 48.9 83% 30.03 1017.4
17 23:56 W 3 10.00 Mostly Cloudy BKN060 57 48.9 74% 30.02 1017.1
17 22:56 SW 3 10.00 Overcast OVC060 59 48 67% 30.01 1016.9
17 21:56 SW 6 10.00 Fair CLR 62.1 48 64.9 62.1 60% 30 1016.3
17 20:56 SW 5 10.00 A Few Clouds FEW060 63 50 63% 30 1016.3
17 19:56 W 12 10.00 Fair CLR 63 51.1 65% 30 1016.3
17 18:56 W 13 10.00 Fair CLR 64 52 65% 30 1016.4
Date Time (akdt) Wind (mph) Vis. (mi.) Weather Sky Cond. Air Dwpt Max. Min. Relative Humidity Wind Chill (°F) Heat Index (°F) altimeter (in) sea level (mb) 1 hr 3 hr 6 hr
6 hour
Temperature (ºF) Pressure Precipitation (in)